Regional Weather Roundup
Issued by NWS Sterling, VA

Home | Current Version | Previous Version | Graphics & Text | Print | Product List | Glossary On
Versions: 1 2 3 4 5 6 7 8 9 10 11 12 13 14 15 16 17 18 19 20 21 22 23 24 25 26 27 28 29 30 31 32 33 34 35 36 37 38 39 40 41 42 43 44 45 46 47 48 49 50
458
ASUS41 KLWX 222011
RWRLWX

REGIONAL WEATHER ROUNDUP
NATIONAL WEATHER SERVICE BALTIMORE MD/WASHINGTON DC
300 PM EST WED FEB 22 2017

Note: "FAIR" indicates few or no clouds below 12,000 feet
with no significant weather and/or obstructions to visibility.
 TC=TEMPERATURE CELSIUS

 * =Non NWS site. Station does not report precipitation (e.g. rain,
    snow, etc.), thunder, or fog.

DCZ001-MDZ009-015-VAZ040>042-051-053>054-222100-
WASHINGTON METRO

CITY           SKY/WX    TMP DP  RH WIND       PRES   REMARKS
WASHINGTON NAT CLOUDY    60  48  64 S10       29.93F
DULLES         CLOUDY    63  46  54 SW7       29.91F
ANDREWS AFB    MOSUNNY   64  47  54 SW10      29.91F
FT BELVOIR     MOSUNNY   61  47  58 S5        29.92F
QUANTICO       CLOUDY    55  50  83 SW5       29.94F
COLLEGE PARK*  MOSUNNY   61  43  51 S8        29.91F
LEESBURG*      CLOUDY    64  48  55 MISG      29.92S
MANASSAS*      CLOUDY    65  48  54 S6        29.91F
GAITHERSBURG*  MOSUNNY   64  43  45 S6        29.94F

$$

MDZ006>007-011-014-222100-
BALTIMORE METRO

CITY           SKY/WX    TMP DP  RH WIND       PRES   REMARKS
BWI AIRPORT    CLOUDY    62  45  53 E6        29.91F
MD SCIENCE CTR   N/A     56  42  59 MISG      29.92F
MARTIN STATE   PTSUNNY   55  46  71 SE6       29.94F
ANNAPOLIS      MOSUNNY   53  46  77 S8        29.93F
FORT MEADE*    CLOUDY    64  43  45 SW6       29.93S

$$

MDZ012-015-019>023-222100-
MARYLAND EASTERN SHORE

CITY           SKY/WX    TMP DP  RH WIND       PRES   REMARKS
OCEAN CITY     CLOUDY    53  47  79 S8        29.95F
SALISBURY      CLOUDY    60  51  72 SW6       29.94F
BAY BRIDGE AP* CLOUDY    57  46  67 S7        29.93S
CAMBRIDGE*       N/A     57  48  72 S5        29.94F
EASTON*        SUNNY     59  46  63 SW9       29.97F

$$

MDZ017>025-222100-
SOUTHERN MARYLAND

CITY           SKY/WX    TMP DP  RH WIND       PRES   REMARKS
PATUXENT RIVER CLOUDY    58  51  78 VRB6      29.94F
ST INIGOES     CLOUDY    58  49  72 CALM      29.94F
LEONARDTOWN*   MOSUNNY   57  46  67 SW5       29.96S

$$

MDZ003>005-222100-
NORTH CENTRAL MARYLAND

CITY           SKY/WX    TMP DP  RH WIND       PRES   REMARKS
FREDERICK*     NOT AVBL
HAGERSTOWN APT PTSUNNY   64  42  44 SW6       29.89F
WESTMINSTER*   CLOUDY    63  45  51 SW3       29.90F

$$

MDZ501>502-222100-
WESTERN MARYLAND

CITY           SKY/WX    TMP DP  RH WIND       PRES   REMARKS
OAKLAND*       CLOUDY    59  41  51 S6        29.90F
CUMBERLAND*    MOSUNNY   70  43  37 S5        29.90F

$$

VAZ025>031-222100-
SHENANDOAH VALLEY

CITY           SKY/WX    TMP DP  RH WIND       PRES   REMARKS
WINCHESTER*    MOSUNNY   63  45  51 CALM      29.89S
FRONT ROYAL*   MOSUNNY   64  46  52 SW7       29.88F
LURAY*         MOSUNNY   63  52  67 S5        29.89F
NEW MARKET*    MOSUNNY   62  48  58 S6        29.89F
STAUNTON*      CLOUDY    61  49  65 SW8       29.93S
WAYNESBORO*    CLOUDY    60  49  68 SW9       29.92F

$$

WVZ021-048>050-054>055-222100-
EASTERN WEST VIRGINIA PANHANDLE

CITY           SKY/WX    TMP DP  RH WIND       PRES   REMARKS
MARTINSBURG    CLOUDY    66  44  45 CALM      29.88F
PETERSBURG*    CLOUDY    69  48  47 CALM      29.87F

$$

VAZ036>039-050-222100-
CENTRAL FOOTHILLS

CITY           SKY/WX    TMP DP  RH WIND       PRES   REMARKS
CHARLOTTESVILL CLOUDY    63  50  62 S8        29.91F
CULPEPER*      MOSUNNY   64  50  60 S7        29.92F
ORANGE*        CLOUDY    61  50  67 S8        29.93S
GORDONSVILLE*  MOSUNNY   61  51  70 SW8       29.91F
WARRENTON*     CLOUDY    66  45  47 S9        29.91S

$$

VAZ055>057-222100-
NORTH AND CENTRAL PIEDMONT

CITY           SKY/WX    TMP DP  RH WIND       PRES   REMARKS
FREDERICKSBRG* MOSUNNY   64  51  63 SW6       29.92F
STAFFORD*      MOSUNNY   63  50  61 S7        29.96F

$$

NCZ024-NYZ072-PAZ021-071-VAZ022-071-222100-
OTHER REGIONAL OBSERVATIONS

CITY           SKY/WX    TMP DP  RH WIND       PRES   REMARKS
NEW YORK CITY  MOSUNNY   56  38  50 CALM      29.93F
PHILADELPHIA   CLOUDY    57  42  57 S7        29.92F
PITTSBURGH     PTSUNNY   65  49  56 SW8       29.86F
ROANOKE        CLOUDY    55  51  86 CALM      29.97F
RICHMOND       LGT RAIN  55  55 100 S7        29.96S FOG
RALEIGH        CLOUDY    70  50  49 CALM      29.94F

$$

ANZ530>537-222100-
MARINE OBSERVATIONS

STATION/POSITION TIME  TEMP    WIND        PRES
                       AIR SEA DIR/SP/G
                 (UTC) (F)     (DEG/KT/KT) (MB)
THOMAS PT LIGHT  2000   49 42  180/ 13/ 13   N/A
BALT KEY BRIDGE  1948   50     120/ 10/ 10 1013.3F
COVE POINT       1948   45     180/  8/  9 1014.5F
LEWISETTA        1948   59 44  240/  6/  8 1013.8F
SOLOMONS ISLAND  1948   51 44  110/  3/  4   N/A

$$





USA.gov is the U.S. government's official web portal to all federal, state and local government web resources and services.